Year,Month,Day,Hour,Minute,Value (Times are PST for insolation in W/m^2)
2008,05,02,00,00,0.00
2008,05,02,00,01,0.00
2008,05,02,00,02,0.00
2008,05,02,00,03,0.00
2008,05,02,00,04,0.00
2008,05,02,00,05,0.00
2008,05,02,00,06,0.00
2008,05,02,00,07,0.00
2008,05,02,00,08,0.00
2008,05,02,00,09,0.00
2008,05,02,00,10,0.00
2008,05,02,00,11,0.00
2008,05,02,00,12,0.00
2008,05,02,00,13,0.00
2008,05,02,00,14,0.00
2008,05,02,00,15,0.00
2008,05,02,00,16,0.00
2008,05,02,00,17,0.00
2008,05,02,00,18,0.00
2008,05,02,00,19,0.00
2008,05,02,00,20,0.00
2008,05,02,00,21,0.00
2008,05,02,00,22,0.00
2008,05,02,00,23,0.00
2008,05,02,00,24,0.00
2008,05,02,00,25,0.00
2008,05,02,00,26,0.00
2008,05,02,00,27,0.00
2008,05,02,00,28,0.00
2008,05,02,00,29,0.00
2008,05,02,00,30,0.00
2008,05,02,00,31,0.00
2008,05,02,00,32,0.00
2008,05,02,00,33,0.00
2008,05,02,00,34,0.00
2008,05,02,00,35,0.00
2008,05,02,00,36,0.00
2008,05,02,00,37,0.00
2008,05,02,00,38,0.00
2008,05,02,00,39,0.00
2008,05,02,00,40,0.00
2008,05,02,00,41,0.00
2008,05,02,00,42,0.00
2008,05,02,00,43,0.00
2008,05,02,00,44,0.00
2008,05,02,00,45,0.00
2008,05,02,00,46,0.00
2008,05,02,00,47,0.00
2008,05,02,00,48,0.00
2008,05,02,00,49,0.00
2008,05,02,00,50,0.00
2008,05,02,00,51,0.00
2008,05,02,00,52,0.00
2008,05,02,00,53,0.00
2008,05,02,00,54,0.00
2008,05,02,00,55,0.00
2008,05,02,00,56,0.00
2008,05,02,00,57,0.00
2008,05,02,00,58,0.00
2008,05,02,00,59,0.00
2008,05,02,01,00,0.00
2008,05,02,01,01,0.00
2008,05,02,01,02,0.00
2008,05,02,01,03,0.00
2008,05,02,01,04,0.00
2008,05,02,01,05,0.00
2008,05,02,01,06,0.00
2008,05,02,01,07,0.00
2008,05,02,01,08,0.00
2008,05,02,01,09,0.00
2008,05,02,01,10,0.00
2008,05,02,01,11,0.00
2008,05,02,01,12,0.00
2008,05,02,01,13,0.00
2008,05,02,01,14,0.00
2008,05,02,01,15,0.00
2008,05,02,01,16,0.00
2008,05,02,01,17,0.00
2008,05,02,01,18,0.00
2008,05,02,01,19,0.00
2008,05,02,01,20,0.00
2008,05,02,01,21,0.00
2008,05,02,01,22,0.00
2008,05,02,01,23,0.00
2008,05,02,01,24,0.00
2008,05,02,01,25,0.00
2008,05,02,01,26,0.00
2008,05,02,01,27,0.00
2008,05,02,01,28,0.00
2008,05,02,01,29,0.00
2008,05,02,01,30,0.00
2008,05,02,01,31,0.00
2008,05,02,01,32,0.00
2008,05,02,01,33,0.00
2008,05,02,01,34,0.00
2008,05,02,01,35,0.00
2008,05,02,01,36,0.00
2008,05,02,01,37,0.00
2008,05,02,01,38,0.00
2008,05,02,01,39,0.00
2008,05,02,01,40,0.00
2008,05,02,01,41,0.00
2008,05,02,01,42,0.00
2008,05,02,01,43,0.00
2008,05,02,01,44,0.00
2008,05,02,01,45,0.00
2008,05,02,01,46,0.00
2008,05,02,01,47,0.00
2008,05,02,01,48,0.00
2008,05,02,01,49,0.00
2008,05,02,01,50,0.00
2008,05,02,01,51,0.00
2008,05,02,01,52,0.00
2008,05,02,01,53,0.00
2008,05,02,01,54,0.00
2008,05,02,01,55,0.00
2008,05,02,01,56,0.00
2008,05,02,01,57,0.00
2008,05,02,01,58,0.00
2008,05,02,01,59,0.00
2008,05,02,02,00,0.00
2008,05,02,02,01,0.00
2008,05,02,02,02,0.00
2008,05,02,02,03,0.00
2008,05,02,02,04,0.00
2008,05,02,02,05,0.00
2008,05,02,02,06,0.00
2008,05,02,02,07,0.00
2008,05,02,02,08,0.00
2008,05,02,02,09,0.00
2008,05,02,02,10,0.00
2008,05,02,02,11,0.00
2008,05,02,02,12,0.00
2008,05,02,02,13,0.00
2008,05,02,02,14,0.00
2008,05,02,02,15,0.00
2008,05,02,02,16,0.00
2008,05,02,02,17,0.00
2008,05,02,02,18,0.00
2008,05,02,02,19,0.00
2008,05,02,02,20,0.00
2008,05,02,02,21,0.00
2008,05,02,02,22,0.00
2008,05,02,02,23,0.00
2008,05,02,02,24,0.00
2008,05,02,02,25,0.00
2008,05,02,02,26,0.00
2008,05,02,02,27,0.00
2008,05,02,02,28,0.00
2008,05,02,02,29,0.00
2008,05,02,02,30,0.00
2008,05,02,02,31,0.00
2008,05,02,02,32,0.00
2008,05,02,02,33,0.00
2008,05,02,02,34,0.00
2008,05,02,02,35,0.00
2008,05,02,02,36,0.00
2008,05,02,02,37,0.00
2008,05,02,02,38,0.00
2008,05,02,02,39,0.00
2008,05,02,02,40,0.00
2008,05,02,02,41,0.00
2008,05,02,02,42,0.00
2008,05,02,02,43,0.00
2008,05,02,02,44,0.00
2008,05,02,02,45,0.00
2008,05,02,02,46,0.00
2008,05,02,02,47,0.00
2008,05,02,02,48,0.00
2008,05,02,02,49,0.00
2008,05,02,02,50,0.00
2008,05,02,02,51,0.00
2008,05,02,02,52,0.00
2008,05,02,02,53,0.00
2008,05,02,02,54,0.00
2008,05,02,02,55,0.00
2008,05,02,02,56,0.00
2008,05,02,02,57,0.00
2008,05,02,02,58,0.00
2008,05,02,02,59,0.00
2008,05,02,03,00,0.00
2008,05,02,03,01,0.00
2008,05,02,03,02,0.00
2008,05,02,03,03,0.00
2008,05,02,03,04,0.00
2008,05,02,03,05,0.00
2008,05,02,03,06,0.00
2008,05,02,03,07,0.00
2008,05,02,03,08,0.00
2008,05,02,03,09,0.00
2008,05,02,03,10,0.00
2008,05,02,03,11,0.00
2008,05,02,03,12,0.00
2008,05,02,03,13,0.00
2008,05,02,03,14,0.00
2008,05,02,03,15,0.00
2008,05,02,03,16,0.00
2008,05,02,03,17,0.00
2008,05,02,03,18,0.00
2008,05,02,03,19,0.00
2008,05,02,03,20,0.00
2008,05,02,03,21,0.00
2008,05,02,03,22,0.00
2008,05,02,03,23,0.00
2008,05,02,03,24,0.00
2008,05,02,03,25,0.00
2008,05,02,03,26,0.00
2008,05,02,03,27,0.00
2008,05,02,03,28,0.00
2008,05,02,03,29,0.00
2008,05,02,03,30,0.00
2008,05,02,03,31,0.00
2008,05,02,03,32,0.00
2008,05,02,03,33,0.00
2008,05,02,03,34,0.00
2008,05,02,03,35,0.00
2008,05,02,03,36,0.00
2008,05,02,03,37,0.00
2008,05,02,03,38,0.00
2008,05,02,03,39,0.00
2008,05,02,03,40,0.00
2008,05,02,03,41,0.00
2008,05,02,03,42,0.00
2008,05,02,03,43,0.00
2008,05,02,03,44,0.00
2008,05,02,03,45,0.00
2008,05,02,03,46,0.00
2008,05,02,03,47,0.00
2008,05,02,03,48,0.00
2008,05,02,03,49,0.00
2008,05,02,03,50,0.00
2008,05,02,03,51,0.00
2008,05,02,03,52,0.00
2008,05,02,03,53,0.00
2008,05,02,03,54,0.00
2008,05,02,03,55,0.00
2008,05,02,03,56,0.00
2008,05,02,03,57,0.00
2008,05,02,03,58,0.00
2008,05,02,03,59,0.00
2008,05,02,04,00,0.00
2008,05,02,04,01,0.00
2008,05,02,04,02,0.00
2008,05,02,04,03,0.00
2008,05,02,04,04,0.00
2008,05,02,04,05,0.00
2008,05,02,04,06,0.00
2008,05,02,04,07,0.00
2008,05,02,04,08,0.00
2008,05,02,04,09,0.00
2008,05,02,04,10,0.00
2008,05,02,04,11,0.00
2008,05,02,04,12,0.00
2008,05,02,04,13,0.00
2008,05,02,04,14,0.00
2008,05,02,04,15,0.00
2008,05,02,04,16,0.00
2008,05,02,04,17,0.00
2008,05,02,04,18,0.00
2008,05,02,04,19,0.00
2008,05,02,04,20,0.00
2008,05,02,04,21,0.00
2008,05,02,04,22,0.00
2008,05,02,04,23,0.00
2008,05,02,04,24,0.00
2008,05,02,04,25,0.00
2008,05,02,04,26,0.00
2008,05,02,04,27,0.00
2008,05,02,04,28,0.00
2008,05,02,04,29,0.00
2008,05,02,04,30,0.00
2008,05,02,04,31,0.00
2008,05,02,04,32,0.00
2008,05,02,04,33,0.00
2008,05,02,04,34,0.00
2008,05,02,04,35,0.00
2008,05,02,04,36,0.00
2008,05,02,04,37,0.00
2008,05,02,04,38,0.00
2008,05,02,04,39,0.00
2008,05,02,04,40,0.00
2008,05,02,04,41,0.00
2008,05,02,04,42,0.00
2008,05,02,04,43,0.00
2008,05,02,04,44,0.00
2008,05,02,04,45,0.00
2008,05,02,04,46,0.00
2008,05,02,04,47,0.00
2008,05,02,04,48,0.00
2008,05,02,04,49,0.00
2008,05,02,04,50,0.00
2008,05,02,04,51,0.00
2008,05,02,04,52,0.00
2008,05,02,04,53,0.00
2008,05,02,04,54,0.00
2008,05,02,04,55,0.00
2008,05,02,04,56,0.00
2008,05,02,04,57,0.00
2008,05,02,04,58,0.00
2008,05,02,04,59,0.00
2008,05,02,05,00,0.00
2008,05,02,05,01,0.00
2008,05,02,05,02,0.00
2008,05,02,05,03,0.00
2008,05,02,05,04,0.00
2008,05,02,05,05,0.00
2008,05,02,05,06,0.00
2008,05,02,05,07,0.00
2008,05,02,05,08,0.00
2008,05,02,05,09,0.00
2008,05,02,05,10,0.00
2008,05,02,05,11,0.00
2008,05,02,05,12,0.00
2008,05,02,05,13,0.00
2008,05,02,05,14,0.00
2008,05,02,05,15,0.00
2008,05,02,05,16,0.00
2008,05,02,05,17,0.00
2008,05,02,05,18,0.00
2008,05,02,05,19,0.00
2008,05,02,05,20,0.00
2008,05,02,05,21,0.00
2008,05,02,05,22,0.00
2008,05,02,05,23,0.00
2008,05,02,05,24,0.00
2008,05,02,05,25,0.00
2008,05,02,05,26,0.00
2008,05,02,05,27,0.00
2008,05,02,05,28,0.00
2008,05,02,05,29,0.00
2008,05,02,05,30,0.00
2008,05,02,05,31,0.00
2008,05,02,05,32,0.00
2008,05,02,05,33,0.00
2008,05,02,05,34,0.00
2008,05,02,05,35,0.00
2008,05,02,05,36,0.00
2008,05,02,05,37,0.00
2008,05,02,05,38,0.00
2008,05,02,05,39,0.00
2008,05,02,05,40,0.00
2008,05,02,05,41,0.00
2008,05,02,05,42,0.00
2008,05,02,05,43,0.00
2008,05,02,05,44,0.00
2008,05,02,05,45,0.00
2008,05,02,05,46,0.00
2008,05,02,05,47,0.00
2008,05,02,05,48,0.00
2008,05,02,05,49,0.00
2008,05,02,05,50,0.00
2008,05,02,05,51,0.00
2008,05,02,05,52,2.20
2008,05,02,05,53,5.00
2008,05,02,05,54,5.00
2008,05,02,05,55,5.00
2008,05,02,05,56,5.00
2008,05,02,05,57,5.00
2008,05,02,05,58,6.00
2008,05,02,05,59,7.00
2008,05,02,06,00,7.00
2008,05,02,06,01,7.00
2008,05,02,06,02,7.00
2008,05,02,06,03,7.80
2008,05,02,06,04,9.00
2008,05,02,06,05,9.00
2008,05,02,06,06,10.70
2008,05,02,06,07,11.00
2008,05,02,06,08,11.20
2008,05,02,06,09,12.00
2008,05,02,06,10,13.10
2008,05,02,06,11,14.00
2008,05,02,06,12,15.60
2008,05,02,06,13,16.20
2008,05,02,06,14,18.00
2008,05,02,06,15,18.40
2008,05,02,06,16,19.00
2008,05,02,06,17,20.40
2008,05,02,06,18,21.00
2008,05,02,06,19,22.90
2008,05,02,06,20,23.60
2008,05,02,06,21,25.00
2008,05,02,06,22,25.50
2008,05,02,06,23,26.00
2008,05,02,06,24,26.00
2008,05,02,06,25,27.90
2008,05,02,06,26,28.00
2008,05,02,06,27,28.00
2008,05,02,06,28,29.20
2008,05,02,06,29,30.00
2008,05,02,06,30,31.90
2008,05,02,06,31,32.00
2008,05,02,06,32,32.30
2008,05,02,06,33,33.00
2008,05,02,06,34,33.00
2008,05,02,06,35,33.00
2008,05,02,06,36,34.80
2008,05,02,06,37,35.00
2008,05,02,06,38,35.00
2008,05,02,06,39,35.90
2008,05,02,06,40,37.00
2008,05,02,06,41,37.00
2008,05,02,06,42,37.00
2008,05,02,06,43,37.40
2008,05,02,06,44,39.00
2008,05,02,06,45,39.00
2008,05,02,06,46,39.70
2008,05,02,06,47,40.00
2008,05,02,06,48,40.00
2008,05,02,06,49,40.00
2008,05,02,06,50,40.00
2008,05,02,06,51,41.00
2008,05,02,06,52,42.00
2008,05,02,06,53,42.00
2008,05,02,06,54,43.90
2008,05,02,06,55,44.50
2008,05,02,06,56,46.00
2008,05,02,06,57,46.60
2008,05,02,06,58,47.00
2008,05,02,06,59,47.00
2008,05,02,07,00,48.90
2008,05,02,07,01,49.50
2008,05,02,07,02,51.00
2008,05,02,07,03,51.00
2008,05,02,07,04,52.30
2008,05,02,07,05,53.00
2008,05,02,07,06,53.00
2008,05,02,07,07,53.20
2008,05,02,07,08,54.00
2008,05,02,07,09,54.00
2008,05,02,07,10,55.60
2008,05,02,07,11,56.00
2008,05,02,07,12,56.20
2008,05,02,07,13,58.00
2008,05,02,07,14,59.00
2008,05,02,07,15,60.00
2008,05,02,07,16,61.50
2008,05,02,07,17,62.00
2008,05,02,07,18,63.00
2008,05,02,07,19,63.70
2008,05,02,07,20,65.00
2008,05,02,07,21,66.20
2008,05,02,07,22,67.00
2008,05,02,07,23,69.00
2008,05,02,07,24,69.00
2008,05,02,07,25,69.00
2008,05,02,07,26,69.00
2008,05,02,07,27,69.00
2008,05,02,07,28,69.00
2008,05,02,07,29,69.90
2008,05,02,07,30,70.40
2008,05,02,07,31,72.00
2008,05,02,07,32,73.00
2008,05,02,07,33,75.30
2008,05,02,07,34,76.80
2008,05,02,07,35,77.00
2008,05,02,07,36,78.30
2008,05,02,07,37,83.40
2008,05,02,07,38,85.00
2008,05,02,07,39,86.00
2008,05,02,07,40,87.80
2008,05,02,07,41,88.20
2008,05,02,07,42,90.00
2008,05,02,07,43,90.00
2008,05,02,07,44,90.60
2008,05,02,07,45,91.00
2008,05,02,07,46,92.90
2008,05,02,07,47,95.10
2008,05,02,07,48,97.20
2008,05,02,07,49,98.90
2008,05,02,07,50,102.40
2008,05,02,07,51,104.70
2008,05,02,07,52,108.50
2008,05,02,07,53,111.30
2008,05,02,07,54,113.90
2008,05,02,07,55,117.00
2008,05,02,07,56,119.20
2008,05,02,07,57,120.80
2008,05,02,07,58,122.90
2008,05,02,07,59,125.40
2008,05,02,08,00,127.00
2008,05,02,08,01,127.50
2008,05,02,08,02,129.20
2008,05,02,08,03,131.50
2008,05,02,08,04,132.10
2008,05,02,08,05,134.20
2008,05,02,08,06,135.00
2008,05,02,08,07,135.90
2008,05,02,08,08,137.00
2008,05,02,08,09,140.20
2008,05,02,08,10,141.10
2008,05,02,08,11,142.50
2008,05,02,08,12,144.00
2008,05,02,08,13,145.00
2008,05,02,08,14,146.00
2008,05,02,08,15,146.00
2008,05,02,08,16,146.00
2008,05,02,08,17,146.00
2008,05,02,08,18,146.00
2008,05,02,08,19,145.00
2008,05,02,08,20,144.00
2008,05,02,08,21,144.00
2008,05,02,08,22,144.00
2008,05,02,08,23,144.00
2008,05,02,08,24,143.20
2008,05,02,08,25,141.40
2008,05,02,08,26,139.60
2008,05,02,08,27,139.00
2008,05,02,08,28,137.00
2008,05,02,08,29,137.00
2008,05,02,08,30,137.90
2008,05,02,08,31,139.00
2008,05,02,08,32,140.40
2008,05,02,08,33,141.00
2008,05,02,08,34,142.00
2008,05,02,08,35,142.00
2008,05,02,08,36,142.00
2008,05,02,08,37,142.00
2008,05,02,08,38,142.00
2008,05,02,08,39,141.10
2008,05,02,08,40,141.20
2008,05,02,08,41,142.60
2008,05,02,08,42,144.90
2008,05,02,08,43,146.00
2008,05,02,08,44,146.00
2008,05,02,08,45,160.40
2008,05,02,08,46,172.40
2008,05,02,08,47,180.80
2008,05,02,08,48,190.50
2008,05,02,08,49,200.90
2008,05,02,08,50,211.50
2008,05,02,08,51,218.60
2008,05,02,08,52,223.50
2008,05,02,08,53,225.00
2008,05,02,08,54,225.00
2008,05,02,08,55,225.00
2008,05,02,08,56,223.40
2008,05,02,08,57,223.20
2008,05,02,08,58,225.00
2008,05,02,08,59,225.70
2008,05,02,09,00,227.00
2008,05,02,09,01,228.40
2008,05,02,09,02,231.50
2008,05,02,09,03,235.90
2008,05,02,09,04,237.50
2008,05,02,09,05,239.00
2008,05,02,09,06,239.00
2008,05,02,09,07,239.00
2008,05,02,09,08,239.00
2008,05,02,09,09,238.80
2008,05,02,09,10,237.00
2008,05,02,09,11,237.00
2008,05,02,09,12,237.00
2008,05,02,09,13,238.60
2008,05,02,09,14,239.00
2008,05,02,09,15,239.00
2008,05,02,09,16,239.00
2008,05,02,09,17,238.10
2008,05,02,09,18,238.20
2008,05,02,09,19,240.60
2008,05,02,09,20,242.90
2008,05,02,09,21,246.70
2008,05,02,09,22,250.00
2008,05,02,09,23,251.40
2008,05,02,09,24,254.20
2008,05,02,09,25,257.30
2008,05,02,09,26,258.00
2008,05,02,09,27,259.10
2008,05,02,09,28,264.00
2008,05,02,09,29,264.00
2008,05,02,09,30,262.80
2008,05,02,09,31,262.00
2008,05,02,09,32,259.90
2008,05,02,09,33,258.00
2008,05,02,09,34,258.00
2008,05,02,09,35,257.50
2008,05,02,09,36,257.00
2008,05,02,09,37,257.00
2008,05,02,09,38,258.00
2008,05,02,09,39,258.40
2008,05,02,09,40,260.00
2008,05,02,09,41,261.10
2008,05,02,09,42,260.70
2008,05,02,09,43,258.20
2008,05,02,09,44,256.80
2008,05,02,09,45,255.00
2008,05,02,09,46,255.80
2008,05,02,09,47,257.00
2008,05,02,09,48,260.90
2008,05,02,09,49,266.20
2008,05,02,09,50,274.50
2008,05,02,09,51,284.20
2008,05,02,09,52,290.40
2008,05,02,09,53,294.60
2008,05,02,09,54,295.00
2008,05,02,09,55,295.00
2008,05,02,09,56,297.00
2008,05,02,09,57,296.40
2008,05,02,09,58,294.60
2008,05,02,09,59,292.80
2008,05,02,10,00,292.00
2008,05,02,10,01,292.00
2008,05,02,10,02,292.50
2008,05,02,10,03,295.00
2008,05,02,10,04,295.00
2008,05,02,10,05,307.00
2008,05,02,10,06,315.80
2008,05,02,10,07,315.90
2008,05,02,10,08,311.60
2008,05,02,10,09,304.30
2008,05,02,10,10,301.00
2008,05,02,10,11,293.10
2008,05,02,10,12,286.10
2008,05,02,10,13,279.50
2008,05,02,10,14,277.10
2008,05,02,10,15,273.30
2008,05,02,10,16,271.50
2008,05,02,10,17,269.70
2008,05,02,10,18,269.00
2008,05,02,10,19,269.00
2008,05,02,10,20,269.00
2008,05,02,10,21,269.00
2008,05,02,10,22,267.90
2008,05,02,10,23,265.50
2008,05,02,10,24,264.10
2008,05,02,10,25,262.00
2008,05,02,10,26,262.00
2008,05,02,10,27,262.00
2008,05,02,10,28,263.10
2008,05,02,10,29,266.30
2008,05,02,10,30,271.20
2008,05,02,10,31,273.60
2008,05,02,10,32,284.30
2008,05,02,10,33,289.60
2008,05,02,10,34,293.80
2008,05,02,10,35,296.40
2008,05,02,10,36,298.70
2008,05,02,10,37,299.30
2008,05,02,10,38,301.00
2008,05,02,10,39,301.50
2008,05,02,10,40,301.40
2008,05,02,10,41,301.00
2008,05,02,10,42,297.60
2008,05,02,10,43,295.00
2008,05,02,10,44,293.90
2008,05,02,10,45,292.00
2008,05,02,10,46,290.70
2008,05,02,10,47,288.50
2008,05,02,10,48,287.00
2008,05,02,10,49,286.60
2008,05,02,10,50,285.00
2008,05,02,10,51,285.00
2008,05,02,10,52,286.20
2008,05,02,10,53,287.00
2008,05,02,10,54,290.10
2008,05,02,10,55,292.60
2008,05,02,10,56,296.40
2008,05,02,10,57,300.60
2008,05,02,10,58,302.00
2008,05,02,10,59,307.30
2008,05,02,11,00,309.10
2008,05,02,11,01,313.50
2008,05,02,11,02,316.20
2008,05,02,11,03,319.10
2008,05,02,11,04,320.00
2008,05,02,11,05,320.00
2008,05,02,11,06,320.20
2008,05,02,11,07,321.60
2008,05,02,11,08,319.20
2008,05,02,11,09,318.00
2008,05,02,11,10,318.00
2008,05,02,11,11,318.00
2008,05,02,11,12,315.80
2008,05,02,11,13,313.10
2008,05,02,11,14,308.60
2008,05,02,11,15,308.00
2008,05,02,11,16,306.60
2008,05,02,11,17,304.30
2008,05,02,11,18,306.00
2008,05,02,11,19,306.60
2008,05,02,11,20,308.50
2008,05,02,11,21,310.20
2008,05,02,11,22,312.50
2008,05,02,11,23,313.00
2008,05,02,11,24,313.00
2008,05,02,11,25,314.70
2008,05,02,11,26,318.00
2008,05,02,11,27,319.20
2008,05,02,11,28,321.70
2008,05,02,11,29,323.10
2008,05,02,11,30,327.60
2008,05,02,11,31,330.60
2008,05,02,11,32,334.00
2008,05,02,11,33,338.00
2008,05,02,11,34,342.30
2008,05,02,11,35,345.20
2008,05,02,11,36,348.50
2008,05,02,11,37,350.70
2008,05,02,11,38,352.50
2008,05,02,11,39,354.30
2008,05,02,11,40,356.60
2008,05,02,11,41,358.70
2008,05,02,11,42,356.00
2008,05,02,11,43,359.00
2008,05,02,11,44,359.50
2008,05,02,11,45,362.90
2008,05,02,11,46,366.60
2008,05,02,11,47,373.50
2008,05,02,11,48,383.10
2008,05,02,11,49,394.90
2008,05,02,11,50,407.30
2008,05,02,11,51,416.50
2008,05,02,11,52,421.40
2008,05,02,11,53,425.60
2008,05,02,11,54,429.00
2008,05,02,11,55,429.00
2008,05,02,11,56,429.00
2008,05,02,11,57,429.00
2008,05,02,11,58,427.10
2008,05,02,11,59,426.70
2008,05,02,12,00,425.00
2008,05,02,12,01,422.10
2008,05,02,12,02,415.20
2008,05,02,12,03,409.20
2008,05,02,12,04,401.10
2008,05,02,12,05,394.20
2008,05,02,12,06,385.30
2008,05,02,12,07,377.50
2008,05,02,12,08,368.70
2008,05,02,12,09,361.60
2008,05,02,12,10,357.10
2008,05,02,12,11,353.00
2008,05,02,12,12,353.60
2008,05,02,12,13,355.00
2008,05,02,12,14,356.40
2008,05,02,12,15,358.70
2008,05,02,12,16,359.10
2008,05,02,12,17,360.90
2008,05,02,12,18,363.20
2008,05,02,12,19,362.00
2008,05,02,12,20,360.70
2008,05,02,12,21,357.30
2008,05,02,12,22,354.40
2008,05,02,12,23,347.20
2008,05,02,12,24,342.70
2008,05,02,12,25,337.30
2008,05,02,12,26,336.00
2008,05,02,12,27,337.70
2008,05,02,12,28,340.90
2008,05,02,12,29,341.00
2008,05,02,12,30,346.30
2008,05,02,12,31,354.10
2008,05,02,12,32,356.60
2008,05,02,12,33,357.00
2008,05,02,12,34,357.20
2008,05,02,12,35,359.30
2008,05,02,12,36,360.80
2008,05,02,12,37,364.80
2008,05,02,12,38,370.10
2008,05,02,12,39,372.70
2008,05,02,12,40,373.20
2008,05,02,12,41,374.00
2008,05,02,12,42,372.60
2008,05,02,12,43,366.30
2008,05,02,12,44,355.40
2008,05,02,12,45,344.50
2008,05,02,12,46,329.20
2008,05,02,12,47,324.30
2008,05,02,12,48,323.00
2008,05,02,12,49,323.00
2008,05,02,12,50,324.70
2008,05,02,12,51,328.60
2008,05,02,12,52,332.80
2008,05,02,12,53,336.70
2008,05,02,12,54,338.50
2008,05,02,12,55,338.40
2008,05,02,12,56,338.00
2008,05,02,12,57,334.40
2008,05,02,12,58,333.60
2008,05,02,12,59,332.00
2008,05,02,13,00,332.00
2008,05,02,13,01,330.70
2008,05,02,13,02,330.00
2008,05,02,13,03,329.10
2008,05,02,13,04,329.00
2008,05,02,13,05,323.80
2008,05,02,13,06,315.40
2008,05,02,13,07,315.00
2008,05,02,13,08,315.00
2008,05,02,13,09,324.40
2008,05,02,13,10,333.70
2008,05,02,13,11,339.10
2008,05,02,13,12,341.00
2008,05,02,13,13,342.40
2008,05,02,13,14,341.20
2008,05,02,13,15,341.00
2008,05,02,13,16,339.80
2008,05,02,13,17,334.40
2008,05,02,13,18,330.80
2008,05,02,13,19,330.00
2008,05,02,13,20,330.00
2008,05,02,13,21,323.00
2008,05,02,13,22,322.70
2008,05,02,13,23,320.20
2008,05,02,13,24,314.90
2008,05,02,13,25,313.00
2008,05,02,13,26,298.70
2008,05,02,13,27,286.60
2008,05,02,13,28,278.00
2008,05,02,13,29,268.50
2008,05,02,13,30,262.00
2008,05,02,13,31,254.80
2008,05,02,13,32,249.80
2008,05,02,13,33,245.30
2008,05,02,13,34,242.30
2008,05,02,13,35,240.00
2008,05,02,13,36,237.80
2008,05,02,13,37,237.00
2008,05,02,13,38,237.00
2008,05,02,13,39,235.70
2008,05,02,13,40,230.00
2008,05,02,13,41,230.00
2008,05,02,13,42,230.00
2008,05,02,13,43,231.60
2008,05,02,13,44,231.80
2008,05,02,13,45,230.00
2008,05,02,13,46,230.00
2008,05,02,13,47,230.00
2008,05,02,13,48,230.00
2008,05,02,13,49,227.30
2008,05,02,13,50,227.00
2008,05,02,13,51,225.10
2008,05,02,13,52,219.20
2008,05,02,13,53,218.00
2008,05,02,13,54,218.00
2008,05,02,13,55,218.00
2008,05,02,13,56,220.00
2008,05,02,13,57,220.00
2008,05,02,13,58,220.00
2008,05,02,13,59,221.80
2008,05,02,14,00,223.00
2008,05,02,14,01,221.10
2008,05,02,14,02,220.50
2008,05,02,14,03,218.00
2008,05,02,14,04,217.00
2008,05,02,14,05,216.00
2008,05,02,14,06,216.00
2008,05,02,14,07,216.20
2008,05,02,14,08,220.00
2008,05,02,14,09,221.60
2008,05,02,14,10,226.80
2008,05,02,14,11,230.80
2008,05,02,14,12,234.90
2008,05,02,14,13,238.80
2008,05,02,14,14,243.20
2008,05,02,14,15,244.70
2008,05,02,14,16,246.90
2008,05,02,14,17,248.00
2008,05,02,14,18,250.50
2008,05,02,14,19,252.90
2008,05,02,14,20,255.00
2008,05,02,14,21,255.70
2008,05,02,14,22,257.00
2008,05,02,14,23,257.60
2008,05,02,14,24,259.70
2008,05,02,14,25,262.10
2008,05,02,14,26,264.20
2008,05,02,14,27,266.60
2008,05,02,14,28,270.10
2008,05,02,14,29,271.70
2008,05,02,14,30,273.60
2008,05,02,14,31,274.20
2008,05,02,14,32,276.00
2008,05,02,14,33,275.20
2008,05,02,14,34,274.00
2008,05,02,14,35,274.00
2008,05,02,14,36,274.00
2008,05,02,14,37,276.20
2008,05,02,14,38,278.00
2008,05,02,14,39,278.40
2008,05,02,14,40,280.10
2008,05,02,14,41,282.30
2008,05,02,14,42,283.00
2008,05,02,14,43,292.00
2008,05,02,14,44,292.00
2008,05,02,14,45,298.60
2008,05,02,14,46,307.20
2008,05,02,14,47,308.00
2008,05,02,14,48,306.10
2008,05,02,14,49,301.90
2008,05,02,14,50,300.40
2008,05,02,14,51,298.10
2008,05,02,14,52,295.30
2008,05,02,14,53,289.80
2008,05,02,14,54,287.50
2008,05,02,14,55,277.90
2008,05,02,14,56,272.40
2008,05,02,14,57,267.20
2008,05,02,14,58,263.20
2008,05,02,14,59,260.30
2008,05,02,15,00,258.20
2008,05,02,15,01,258.00
2008,05,02,15,02,258.00
2008,05,02,15,03,259.10
2008,05,02,15,04,260.00
2008,05,02,15,05,260.00
2008,05,02,15,06,260.00
2008,05,02,15,07,259.50
2008,05,02,15,08,256.90
2008,05,02,15,09,253.00
2008,05,02,15,10,247.80
2008,05,02,15,11,246.00
2008,05,02,15,12,235.90
2008,05,02,15,13,229.20
2008,05,02,15,14,225.20
2008,05,02,15,15,223.00
2008,05,02,15,16,219.50
2008,05,02,15,17,218.00
2008,05,02,15,18,215.60
2008,05,02,15,19,213.00
2008,05,02,15,20,212.20
2008,05,02,15,21,209.80
2008,05,02,15,22,207.60
2008,05,02,15,23,206.10
2008,05,02,15,24,206.00
2008,05,02,15,25,206.00
2008,05,02,15,26,206.40
2008,05,02,15,27,208.20
2008,05,02,15,28,210.40
2008,05,02,15,29,213.60
2008,05,02,15,30,218.50
2008,05,02,15,31,222.20
2008,05,02,15,32,226.80
2008,05,02,15,33,230.80
2008,05,02,15,34,232.00
2008,05,02,15,35,236.50
2008,05,02,15,36,236.80
2008,05,02,15,37,235.30
2008,05,02,15,38,234.00
2008,05,02,15,39,231.30
2008,05,02,15,40,227.50
2008,05,02,15,41,224.70
2008,05,02,15,42,218.80
2008,05,02,15,43,212.10
2008,05,02,15,44,207.60
2008,05,02,15,45,203.40
2008,05,02,15,46,202.00
2008,05,02,15,47,201.80
2008,05,02,15,48,197.50
2008,05,02,15,49,200.30
2008,05,02,15,50,205.90
2008,05,02,15,51,215.50
2008,05,02,15,52,223.90
2008,05,02,15,53,231.60
2008,05,02,15,54,236.70
2008,05,02,15,55,253.20
2008,05,02,15,56,266.60
2008,05,02,15,57,282.30
2008,05,02,15,58,292.60
2008,05,02,15,59,299.80
2008,05,02,16,00,307.80
2008,05,02,16,01,310.90
2008,05,02,16,02,304.70
2008,05,02,16,03,299.90
2008,05,02,16,04,297.30
2008,05,02,16,05,297.00
2008,05,02,16,06,298.80
2008,05,02,16,07,301.80
2008,05,02,16,08,296.00
2008,05,02,16,09,294.00
2008,05,02,16,10,287.70
2008,05,02,16,11,287.90
2008,05,02,16,12,287.00
2008,05,02,16,13,286.00
2008,05,02,16,14,283.80
2008,05,02,16,15,281.40
2008,05,02,16,16,275.80
2008,05,02,16,17,271.20
2008,05,02,16,18,265.30
2008,05,02,16,19,260.20
2008,05,02,16,20,256.20
2008,05,02,16,21,253.40
2008,05,02,16,22,251.20
2008,05,02,16,23,251.40
2008,05,02,16,24,253.00
2008,05,02,16,25,255.00
2008,05,02,16,26,259.00
2008,05,02,16,27,261.70
2008,05,02,16,28,265.20
2008,05,02,16,29,269.70
2008,05,02,16,30,273.50
2008,05,02,16,31,277.10
2008,05,02,16,32,276.70
2008,05,02,16,33,276.00
2008,05,02,16,34,274.00
2008,05,02,16,35,274.00
2008,05,02,16,36,274.00
2008,05,02,16,37,274.00
2008,05,02,16,38,274.00
2008,05,02,16,39,274.00
2008,05,02,16,40,274.20
2008,05,02,16,41,275.50
2008,05,02,16,42,274.90
2008,05,02,16,43,274.80
2008,05,02,16,44,274.00
2008,05,02,16,45,272.10
2008,05,02,16,46,268.20
2008,05,02,16,47,262.20
2008,05,02,16,48,255.10
2008,05,02,16,49,249.20
2008,05,02,16,50,244.20
2008,05,02,16,51,237.00
2008,05,02,16,52,229.00
2008,05,02,16,53,223.30
2008,05,02,16,54,218.00
2008,05,02,16,55,214.20
2008,05,02,16,56,210.00
2008,05,02,16,57,207.20
2008,05,02,16,58,207.60
2008,05,02,16,59,212.10
2008,05,02,17,00,216.10
2008,05,02,17,01,221.20
2008,05,02,17,02,226.20
2008,05,02,17,03,233.30
2008,05,02,17,04,234.00
2008,05,02,17,05,234.00
2008,05,02,17,06,236.50
2008,05,02,17,07,239.00
2008,05,02,17,08,239.00
2008,05,02,17,09,240.80
2008,05,02,17,10,241.00